Location: Peebles
(55.6412°N, 3.1714°W)
Time: 22:14:55
(UTC+01:00)

CENTAUR R/B - Pass Details

Date: 27 January 2022
Orbit: 716 x 1471 km, 63.4° (Epoch: 08 May)

Event Time Altitude Azimuth Distance (km) Brightness Sun altitude
Rises 23:37:21 0° 311° (NW) 4,110 6.3 -51.5°
Reaches altitude 10° 23:40:04 10° 306° (NW) 3,241 5.5 -51.6°
Enters shadow 23:41:01 14° 303° (WNW) 2,955 5.3 -51.7°
